Time,TemperatureF,DewpointF,PressureIn,WindDirection,WindDirectionDegrees,WindSpeedMPH,WindSpeedGustMPH,Humidity,HourlyPrecipIn,Conditions,Clouds,dailyrainin,SoftwareType,DateUTC
2013-11-29 00:00:00,28.3,23.8,30.48,SE,133,0.0,0.0,83,0.00,,,0.00,Wunderground v.1.15,2013-11-29 05:00:00,
2013-11-29 00:01:00,28.3,23.8,30.48,SE,133,0.0,0.0,83,0.00,,,0.00,Wunderground v.1.15,2013-11-29 05:01:00,
2013-11-29 00:02:00,28.3,23.8,30.48,SE,133,0.0,0.0,83,0.00,,,0.00,Wunderground v.1.15,2013-11-29 05:02:00,
2013-11-29 00:03:00,28.3,23.8,30.48,SE,133,0.0,0.0,83,0.00,,,0.00,Wunderground v.1.15,2013-11-29 05:03:00,
2013-11-29 00:05:00,28.3,23.5,30.48,SE,133,0.0,0.0,82,0.00,,,0.00,Wunderground v.1.15,2013-11-29 05:05:00,
2013-11-29 00:10:00,28.3,23.2,30.48,SE,133,0.0,0.0,81,0.00,,,0.00,Wunderground v.1.15,2013-11-29 05:10:00,
2013-11-29 00:11:00,28.3,23.2,30.48,SE,133,0.0,0.0,81,0.00,,,0.00,Wunderground v.1.15,2013-11-29 05:11:00,
2013-11-29 00:13:00,28.3,23.2,30.48,SE,133,0.0,0.0,81,0.00,,,0.00,Wunderground v.1.15,2013-11-29 05:13:00,
2013-11-29 00:18:00,28.4,23.6,30.47,SE,133,0.0,0.0,82,0.00,,,0.00,Wunderground v.1.15,2013-11-29 05:18:00,
2013-11-29 00:24:00,28.4,23.6,30.47,SE,133,0.0,0.0,82,0.00,,,0.00,Wunderground v.1.15,2013-11-29 05:24:00,
2013-11-29 00:29:00,28.4,23.6,30.48,SE,133,0.0,0.0,82,0.00,,,0.00,Wunderground v.1.15,2013-11-29 05:29:00,
2013-11-29 00:34:00,28.4,23.3,30.47,SE,133,0.0,0.0,81,0.00,,,0.00,Wunderground v.1.15,2013-11-29 05:34:00,
2013-11-29 00:39:00,28.4,23.6,30.47,SE,133,0.0,0.0,82,0.00,,,0.00,Wunderground v.1.15,2013-11-29 05:39:00,
2013-11-29 00:44:00,28.3,23.8,30.48,SE,133,0.0,0.0,83,0.00,,,0.00,Wunderground v.1.15,2013-11-29 05:44:00,
2013-11-29 00:50:00,28.2,23.4,30.48,SE,133,0.0,0.0,82,0.00,,,0.00,Wunderground v.1.15,2013-11-29 05:50:00,
2013-11-29 00:55:00,28.2,23.7,30.48,SE,133,0.0,0.0,83,0.00,,,0.00,Wunderground v.1.15,2013-11-29 05:55:00,
2013-11-29 01:00:00,28.1,23.6,30.48,SE,133,0.0,0.0,83,0.00,,,0.00,Wunderground v.1.15,2013-11-29 06:00:00,
2013-11-29 01:06:00,28.1,23.9,30.48,SE,133,0.0,0.0,84,0.00,,,0.00,Wunderground v.1.15,2013-11-29 06:06:00,
2013-11-29 01:12:00,28.0,23.5,30.48,SE,133,0.0,0.0,83,0.00,,,0.00,Wunderground v.1.15,2013-11-29 06:12:00,
2013-11-29 01:17:00,28.1,23.9,30.48,SE,133,0.0,0.0,84,0.00,,,0.00,Wunderground v.1.15,2013-11-29 06:17:00,
2013-11-29 01:22:00,28.1,23.9,30.48,SE,133,0.0,0.0,84,0.00,,,0.00,Wunderground v.1.15,2013-11-29 06:22:00,
2013-11-29 01:27:00,28.1,24.2,30.48,SE,133,0.0,0.0,85,0.00,,,0.00,Wunderground v.1.15,2013-11-29 06:27:00,
2013-11-29 01:32:00,28.1,23.9,30.49,SE,133,0.0,0.0,84,0.00,,,0.00,Wunderground v.1.15,2013-11-29 06:32:00,
2013-11-29 01:38:00,28.1,23.9,30.49,SE,133,0.0,0.0,84,0.00,,,0.00,Wunderground v.1.15,2013-11-29 06:38:00,
2013-11-29 01:43:00,28.1,24.2,30.49,SE,133,0.0,0.0,85,0.00,,,0.00,Wunderground v.1.15,2013-11-29 06:43:00,
2013-11-29 01:48:00,28.0,24.1,30.49,SE,133,0.0,0.0,85,0.00,,,0.00,Wunderground v.1.15,2013-11-29 06:48:00,
2013-11-29 01:53:00,28.0,23.8,30.49,SE,133,0.0,0.0,84,0.00,,,0.00,Wunderground v.1.15,2013-11-29 06:53:00,
2013-11-29 01:59:00,28.1,24.2,30.49,SE,133,0.0,0.0,85,0.00,,,0.00,Wunderground v.1.15,2013-11-29 06:59:00,
2013-11-29 02:04:00,28.1,23.9,30.49,SE,133,0.0,0.0,84,0.00,,,0.00,Wunderground v.1.15,2013-11-29 07:04:00,
2013-11-29 02:09:00,28.1,23.9,30.49,SE,133,0.0,0.0,84,0.00,,,0.00,Wunderground v.1.15,2013-11-29 07:09:00,
2013-11-29 02:14:00,28.2,24.0,30.49,SE,133,0.0,0.0,84,0.00,,,0.00,Wunderground v.1.15,2013-11-29 07:14:00,
2013-11-29 02:19:00,28.2,24.0,30.50,SE,133,0.0,0.0,84,0.00,,,0.00,Wunderground v.1.15,2013-11-29 07:19:00,
2013-11-29 02:24:00,28.1,23.9,30.50,SE,133,0.0,0.0,84,0.00,,,0.00,Wunderground v.1.15,2013-11-29 07:24:00,
2013-11-29 02:30:00,28.1,23.6,30.50,SE,133,0.0,0.0,83,0.00,,,0.00,Wunderground v.1.15,2013-11-29 07:30:00,
2013-11-29 02:35:00,28.1,24.2,30.50,SE,133,0.0,0.0,85,0.00,,,0.00,Wunderground v.1.15,2013-11-29 07:35:00,
2013-11-29 02:40:00,28.0,23.8,30.50,SE,133,0.0,0.0,84,0.00,,,0.00,Wunderground v.1.15,2013-11-29 07:40:00,
2013-11-29 02:45:00,28.0,23.8,30.51,SE,133,0.0,0.0,84,0.00,,,0.00,Wunderground v.1.15,2013-11-29 07:45:00,
2013-11-29 02:51:00,28.0,23.8,30.51,SE,133,0.0,0.0,84,0.00,,,0.00,Wunderground v.1.15,2013-11-29 07:51:00,
2013-11-29 02:56:00,28.0,23.8,30.51,SE,133,0.0,0.0,84,0.00,,,0.00,Wunderground v.1.15,2013-11-29 07:56:00,
2013-11-29 03:02:00,27.9,24.0,30.51,SE,133,0.0,0.0,85,0.00,,,0.00,Wunderground v.1.15,2013-11-29 08:02:00,
2013-11-29 03:07:00,27.9,24.0,30.51,SE,133,0.0,0.0,85,0.00,,,0.00,Wunderground v.1.15,2013-11-29 08:07:00,
2013-11-29 03:12:00,27.8,23.9,30.51,SE,133,0.0,0.0,85,0.00,,,0.00,Wunderground v.1.15,2013-11-29 08:12:00,
2013-11-29 03:17:00,27.7,23.8,30.51,SE,133,0.0,0.0,85,0.00,,,0.00,Wunderground v.1.15,2013-11-29 08:17:00,
2013-11-29 03:22:00,27.7,23.8,30.51,SE,133,0.0,0.0,85,0.00,,,0.00,Wunderground v.1.15,2013-11-29 08:22:00,
2013-11-29 03:28:00,27.6,23.7,30.52,SE,133,0.0,0.0,85,0.00,,,0.00,Wunderground v.1.15,2013-11-29 08:28:00,
2013-11-29 03:33:00,27.5,23.9,30.52,SE,133,0.0,0.0,86,0.00,,,0.00,Wunderground v.1.15,2013-11-29 08:33:00,
2013-11-29 03:38:00,27.5,23.6,30.52,SE,133,0.0,0.0,85,0.00,,,0.00,Wunderground v.1.15,2013-11-29 08:38:00,
2013-11-29 03:44:00,27.4,23.5,30.52,SE,133,0.0,0.0,85,0.00,,,0.00,Wunderground v.1.15,2013-11-29 08:44:00,
2013-11-29 03:49:00,27.5,23.9,30.52,SE,133,0.0,0.0,86,0.00,,,0.00,Wunderground v.1.15,2013-11-29 08:49:00,
2013-11-29 03:54:00,27.5,23.6,30.52,SE,133,0.0,0.0,85,0.00,,,0.00,Wunderground v.1.15,2013-11-29 08:54:00,
2013-11-29 04:00:00,27.6,23.4,30.52,SE,133,0.0,0.0,84,0.00,,,0.00,Wunderground v.1.15,2013-11-29 09:00:00,
2013-11-29 04:06:00,27.6,23.7,30.52,SE,133,0.0,0.0,85,0.00,,,0.00,Wunderground v.1.15,2013-11-29 09:06:00,
2013-11-29 04:11:00,27.6,23.7,30.52,SE,133,0.0,0.0,85,0.00,,,0.00,Wunderground v.1.15,2013-11-29 09:11:00,
2013-11-29 04:16:00,27.5,23.3,30.52,SE,133,0.0,0.0,84,0.00,,,0.00,Wunderground v.1.15,2013-11-29 09:16:00,
2013-11-29 04:21:00,27.5,23.6,30.53,SE,133,0.0,0.0,85,0.00,,,0.00,Wunderground v.1.15,2013-11-29 09:21:00,
2013-11-29 04:27:00,27.4,23.5,30.53,SE,133,0.0,0.0,85,0.00,,,0.00,Wunderground v.1.15,2013-11-29 09:27:00,
2013-11-29 04:32:00,27.4,23.5,30.53,SE,133,0.0,0.0,85,0.00,,,0.00,Wunderground v.1.15,2013-11-29 09:32:00,
2013-11-29 04:37:00,27.2,23.6,30.53,SE,133,0.0,0.0,86,0.00,,,0.00,Wunderground v.1.15,2013-11-29 09:37:00,
2013-11-29 04:42:00,27.1,23.2,30.53,SE,133,0.0,0.0,85,0.00,,,0.00,Wunderground v.1.15,2013-11-29 09:42:00,
2013-11-29 04:48:00,27.0,23.4,30.54,SE,133,0.0,0.0,86,0.00,,,0.00,Wunderground v.1.15,2013-11-29 09:48:00,
2013-11-29 04:53:00,26.9,23.3,30.54,SE,133,0.0,0.0,86,0.00,,,0.00,Wunderground v.1.15,2013-11-29 09:53:00,
2013-11-29 04:58:00,26.7,23.4,30.54,SE,133,0.0,0.0,87,0.00,,,0.00,Wunderground v.1.15,2013-11-29 09:58:00,
2013-11-29 05:04:00,26.6,23.3,30.54,SE,133,0.0,0.0,87,0.00,,,0.00,Wunderground v.1.15,2013-11-29 10:04:00,
2013-11-29 05:09:00,26.5,23.2,30.54,SE,133,0.0,0.0,87,0.00,,,0.00,Wunderground v.1.15,2013-11-29 10:09:00,
2013-11-29 05:14:00,26.4,23.1,30.55,SE,133,0.0,0.0,87,0.00,,,0.00,Wunderground v.1.15,2013-11-29 10:14:00,
2013-11-29 05:20:00,26.3,23.0,30.55,SE,133,0.0,0.0,87,0.00,,,0.00,Wunderground v.1.15,2013-11-29 10:20:00,
2013-11-29 05:25:00,26.1,22.8,30.55,SE,133,0.0,0.0,87,0.00,,,0.00,Wunderground v.1.15,2013-11-29 10:25:00,
2013-11-29 05:30:00,25.9,22.6,30.55,SE,133,0.0,0.0,87,0.00,,,0.00,Wunderground v.1.15,2013-11-29 10:30:00,
2013-11-29 05:36:00,25.7,22.4,30.55,SE,133,0.0,0.0,87,0.00,,,0.00,Wunderground v.1.15,2013-11-29 10:36:00,
2013-11-29 05:41:00,25.4,22.1,30.55,SE,133,0.0,0.0,87,0.00,,,0.00,Wunderground v.1.15,2013-11-29 10:41:00,
2013-11-29 05:46:00,25.2,21.9,30.55,SE,133,0.0,0.0,87,0.00,,,0.00,Wunderground v.1.15,2013-11-29 10:46:00,
2013-11-29 05:51:00,24.8,21.5,30.56,SE,133,0.0,0.0,87,0.00,,,0.00,Wunderground v.1.15,2013-11-29 10:51:00,
2013-11-29 05:56:00,24.6,21.3,30.56,SE,133,0.0,0.0,87,0.00,,,0.00,Wunderground v.1.15,2013-11-29 10:56:00,
2013-11-29 06:02:00,24.3,21.3,30.56,SE,133,0.0,0.0,88,0.00,,,0.00,Wunderground v.1.15,2013-11-29 11:02:00,
2013-11-29 06:07:00,24.2,21.2,30.57,SE,133,0.0,0.0,88,0.00,,,0.00,Wunderground v.1.15,2013-11-29 11:07:00,
2013-11-29 06:12:00,24.0,21.2,30.57,SE,133,0.0,0.0,89,0.00,,,0.00,Wunderground v.1.15,2013-11-29 11:12:00,
2013-11-29 06:17:00,23.8,21.0,30.57,SE,133,0.0,0.0,89,0.00,,,0.00,Wunderground v.1.15,2013-11-29 11:17:00,
2013-11-29 06:23:00,23.6,20.8,30.57,SE,133,0.0,0.0,89,0.00,,,0.00,Wunderground v.1.15,2013-11-29 11:23:00,
2013-11-29 06:28:00,23.4,20.6,30.58,SE,133,0.0,0.0,89,0.00,,,0.00,Wunderground v.1.15,2013-11-29 11:28:00,
2013-11-29 06:33:00,23.3,20.5,30.58,SE,133,0.0,0.0,89,0.00,,,0.00,Wunderground v.1.15,2013-11-29 11:33:00,
2013-11-29 06:39:00,23.1,20.3,30.58,SE,133,0.0,0.0,89,0.00,,,0.00,Wunderground v.1.15,2013-11-29 11:39:00,
2013-11-29 06:44:00,22.9,20.1,30.58,SE,133,0.0,0.0,89,0.00,,,0.00,Wunderground v.1.15,2013-11-29 11:44:00,
2013-11-29 06:49:00,22.7,19.9,30.59,SE,133,0.0,0.0,89,0.00,,,0.00,Wunderground v.1.15,2013-11-29 11:49:00,
2013-11-29 06:54:00,22.5,19.7,30.59,SE,133,0.0,0.0,89,0.00,,,0.00,Wunderground v.1.15,2013-11-29 11:54:00,
2013-11-29 06:59:00,22.3,19.8,30.59,SE,133,0.0,0.0,90,0.00,,,0.00,Wunderground v.1.15,2013-11-29 11:59:00,
2013-11-29 07:05:00,22.1,19.6,30.59,SE,133,0.0,0.0,90,0.00,,,0.00,Wunderground v.1.15,2013-11-29 12:05:00,
2013-11-29 07:10:00,22.0,19.5,30.60,SE,133,0.0,0.0,90,0.00,,,0.00,Wunderground v.1.15,2013-11-29 12:10:00,
2013-11-29 07:16:00,21.8,19.6,30.60,SE,133,0.0,0.0,91,0.00,,,0.00,Wunderground v.1.15,2013-11-29 12:16:00,
2013-11-29 07:21:00,21.7,19.5,30.60,SE,133,0.0,0.0,91,0.00,,,0.00,Wunderground v.1.15,2013-11-29 12:21:00,
2013-11-29 07:26:00,21.6,19.4,30.60,SE,133,0.0,0.0,91,0.00,,,0.00,Wunderground v.1.15,2013-11-29 12:26:00,
2013-11-29 07:32:00,21.4,19.2,30.60,SE,133,0.0,0.0,91,0.00,,,0.00,Wunderground v.1.15,2013-11-29 12:32:00,
2013-11-29 07:37:00,21.3,19.1,30.60,SE,133,0.0,0.0,91,0.00,,,0.00,Wunderground v.1.15,2013-11-29 12:37:00,
2013-11-29 07:42:00,21.2,19.0,30.61,SE,133,0.0,0.0,91,0.00,,,0.00,Wunderground v.1.15,2013-11-29 12:42:00,
2013-11-29 07:48:00,21.2,19.2,30.61,SE,133,0.0,0.0,92,0.00,,,0.00,Wunderground v.1.15,2013-11-29 12:48:00,
2013-11-29 07:53:00,21.1,18.9,30.61,SE,133,0.0,0.0,91,0.00,,,0.00,Wunderground v.1.15,2013-11-29 12:53:00,
2013-11-29 07:58:00,21.1,18.9,30.61,SE,133,0.0,0.0,91,0.00,,,0.00,Wunderground v.1.15,2013-11-29 12:58:00,
2013-11-29 08:03:00,21.0,18.8,30.62,SE,133,0.0,0.0,91,0.00,,,0.00,Wunderground v.1.15,2013-11-29 13:03:00,
2013-11-29 08:09:00,21.2,19.2,30.62,SE,133,0.0,0.0,92,0.00,,,0.00,Wunderground v.1.15,2013-11-29 13:09:00,
2013-11-29 08:14:00,21.4,19.4,30.62,SE,133,0.0,0.0,92,0.00,,,0.00,Wunderground v.1.15,2013-11-29 13:14:00,
2013-11-29 08:19:00,21.7,20.0,30.62,SE,133,0.0,0.0,93,0.00,,,0.00,Wunderground v.1.15,2013-11-29 13:19:00,
2013-11-29 08:24:00,22.4,20.7,30.63,SE,133,0.0,0.0,93,0.00,,,0.00,Wunderground v.1.15,2013-11-29 13:24:00,
2013-11-29 08:30:00,23.2,21.5,30.63,SE,133,0.0,0.0,93,0.00,,,0.00,Wunderground v.1.15,2013-11-29 13:30:00,
2013-11-29 08:35:00,23.9,21.7,30.63,SE,133,0.0,0.0,91,0.00,,,0.00,Wunderground v.1.15,2013-11-29 13:35:00,
2013-11-29 08:40:00,24.2,21.7,30.63,SE,133,0.0,0.0,90,0.00,,,0.00,Wunderground v.1.15,2013-11-29 13:40:00,
2013-11-29 08:46:00,24.5,21.7,30.63,SE,133,0.0,0.0,89,0.00,,,0.00,Wunderground v.1.15,2013-11-29 13:46:00,
2013-11-29 08:51:00,24.8,22.0,30.64,SE,133,0.0,0.0,89,0.00,,,0.00,Wunderground v.1.15,2013-11-29 13:51:00,
2013-11-29 08:56:00,25.2,22.4,30.64,SE,133,0.0,0.0,89,0.00,,,0.00,Wunderground v.1.15,2013-11-29 13:56:00,
2013-11-29 09:02:00,25.7,22.6,30.64,SE,133,0.0,0.0,88,0.00,,,0.00,Wunderground v.1.15,2013-11-29 14:02:00,
2013-11-29 09:07:00,26.2,23.1,30.64,SE,133,0.0,1.0,88,0.00,,,0.00,Wunderground v.1.15,2013-11-29 14:07:00,
2013-11-29 09:12:00,26.9,23.5,30.64,SE,133,0.0,0.0,87,0.00,,,0.00,Wunderground v.1.15,2013-11-29 14:12:00,
2013-11-29 09:18:00,27.7,23.8,30.64,East,100,0.0,1.0,85,0.00,,,0.00,Wunderground v.1.15,2013-11-29 14:18:00,
2013-11-29 09:24:00,28.4,23.9,30.65,SE,126,0.0,0.0,83,0.00,,,0.00,Wunderground v.1.15,2013-11-29 14:24:00,
2013-11-29 09:30:00,29.2,24.1,30.65,South,190,0.0,2.0,81,0.00,,,0.00,Wunderground v.1.15,2013-11-29 14:30:00,
2013-11-29 09:35:00,29.7,24.0,30.65,ENE,74,0.0,2.0,79,0.00,,,0.00,Wunderground v.1.15,2013-11-29 14:35:00,
2013-11-29 09:40:00,30.1,24.1,30.65,SE,126,1.0,2.0,78,0.00,,,0.00,Wunderground v.1.15,2013-11-29 14:40:00,
2013-11-29 09:45:00,30.3,24.0,30.65,SSE,148,1.0,2.0,77,0.00,,,0.00,Wunderground v.1.15,2013-11-29 14:45:00,
2013-11-29 09:50:00,30.6,23.3,30.65,ESE,117,0.0,0.0,74,0.00,,,0.00,Wunderground v.1.15,2013-11-29 14:50:00,
2013-11-29 09:56:00,30.8,22.5,30.66,NE,55,1.0,1.0,71,0.00,,,0.00,Wunderground v.1.15,2013-11-29 14:56:00,
2013-11-29 10:01:00,31.1,22.8,30.66,NNE,28,1.0,1.0,71,0.00,,,0.00,Wunderground v.1.15,2013-11-29 15:01:00,
2013-11-29 10:07:00,31.3,22.6,30.66,ESE,115,1.0,1.0,70,0.00,,,0.00,Wunderground v.1.15,2013-11-29 15:07:00,
2013-11-29 10:12:00,31.5,22.1,30.66,NE,46,1.0,1.0,68,0.00,,,0.00,Wunderground v.1.15,2013-11-29 15:12:00,
2013-11-29 10:17:00,31.7,22.3,30.66,SSW,207,0.0,2.0,68,0.00,,,0.00,Wunderground v.1.15,2013-11-29 15:17:00,
2013-11-29 10:22:00,32.0,23.0,30.67,East,101,0.0,0.0,69,0.00,,,0.00,Wunderground v.1.15,2013-11-29 15:22:00,
2013-11-29 10:28:00,32.4,22.3,30.67,NE,55,0.0,2.0,66,0.00,,,0.00,Wunderground v.1.15,2013-11-29 15:28:00,
2013-11-29 10:33:00,32.5,22.0,30.67,WNW,292,0.0,2.0,65,0.00,,,0.00,Wunderground v.1.15,2013-11-29 15:33:00,
2013-11-29 10:38:00,32.7,22.6,30.67,ENE,61,1.0,2.0,66,0.00,,,0.00,Wunderground v.1.15,2013-11-29 15:38:00,
2013-11-29 10:43:00,33.0,22.9,30.67,NW,304,1.0,3.0,66,0.00,,,0.00,Wunderground v.1.15,2013-11-29 15:43:00,
2013-11-29 10:48:00,33.1,22.2,30.67,ESE,123,1.0,3.0,64,0.00,,,0.00,Wunderground v.1.15,2013-11-29 15:48:00,
2013-11-29 10:53:00,33.1,21.9,30.67,SE,127,1.0,1.0,63,0.00,,,0.00,Wunderground v.1.15,2013-11-29 15:53:00,
2013-11-29 10:58:00,33.5,22.6,30.67,SE,145,0.0,1.0,64,0.00,,,0.00,Wunderground v.1.15,2013-11-29 15:58:00,
2013-11-29 11:04:00,34.1,23.2,30.67,ESE,110,0.0,1.0,64,0.00,,,0.00,Wunderground v.1.15,2013-11-29 16:04:00,
2013-11-29 11:09:00,34.2,22.9,30.67,SE,138,0.0,3.0,63,0.00,,,0.00,Wunderground v.1.15,2013-11-29 16:09:00,
2013-11-29 11:14:00,33.9,23.0,30.66,ESE,102,1.0,4.0,64,0.00,,,0.00,Wunderground v.1.15,2013-11-29 16:14:00,
2013-11-29 11:20:00,33.9,23.0,30.67,SE,134,2.0,2.0,64,0.00,,,0.00,Wunderground v.1.15,2013-11-29 16:20:00,
2013-11-29 11:25:00,34.1,23.2,30.66,SE,134,1.0,2.0,64,0.00,,,0.00,Wunderground v.1.15,2013-11-29 16:25:00,
2013-11-29 11:30:00,34.3,24.1,30.66,South,188,1.0,1.0,66,0.00,,,0.00,Wunderground v.1.15,2013-11-29 16:30:00,
2013-11-29 11:35:00,34.4,22.7,30.66,ENE,74,1.0,1.0,62,0.00,,,0.00,Wunderground v.1.15,2013-11-29 16:35:00,
2013-11-29 11:40:00,34.6,22.5,30.67,SE,132,1.0,1.0,61,0.00,,,0.00,Wunderground v.1.15,2013-11-29 16:40:00,
2013-11-29 11:46:00,34.8,22.3,30.67,ENE,69,1.0,3.0,60,0.00,,,0.00,Wunderground v.1.15,2013-11-29 16:46:00,
2013-11-29 11:51:00,35.5,23.4,30.66,South,186,0.0,3.0,61,0.00,,,0.00,Wunderground v.1.15,2013-11-29 16:51:00,
2013-11-29 11:57:00,36.2,22.8,30.66,NW,315,0.0,3.0,58,0.00,,,0.00,Wunderground v.1.15,2013-11-29 16:57:00,
2013-11-29 12:02:00,35.6,22.7,30.66,ENE,67,1.0,2.0,59,0.00,,,0.00,Wunderground v.1.15,2013-11-29 17:02:00,
2013-11-29 12:08:00,35.2,21.9,30.66,SSW,193,1.0,2.0,58,0.00,,,0.00,Wunderground v.1.15,2013-11-29 17:08:00,
2013-11-29 12:13:00,35.0,22.5,30.66,SSW,192,0.0,0.0,60,0.00,,,0.00,Wunderground v.1.15,2013-11-29 17:13:00,
2013-11-29 12:18:00,35.0,22.9,30.66,SSW,192,0.0,0.0,61,0.00,,,0.00,Wunderground v.1.15,2013-11-29 17:18:00,
2013-11-29 12:23:00,34.9,22.0,30.66,SSE,156,0.0,0.0,59,0.00,,,0.00,Wunderground v.1.15,2013-11-29 17:23:00,
2013-11-29 12:29:00,34.7,21.8,30.66,SSE,156,0.0,2.0,59,0.00,,,0.00,Wunderground v.1.15,2013-11-29 17:29:00,
2013-11-29 12:34:00,34.8,22.3,30.66,SSE,156,0.0,0.0,60,0.00,,,0.00,Wunderground v.1.15,2013-11-29 17:34:00,
2013-11-29 12:39:00,34.9,22.8,30.66,SSE,156,0.0,0.0,61,0.00,,,0.00,Wunderground v.1.15,2013-11-29 17:39:00,
2013-11-29 12:45:00,34.9,22.4,30.66,SSE,153,1.0,1.0,60,0.00,,,0.00,Wunderground v.1.15,2013-11-29 17:45:00,
2013-11-29 12:50:00,34.7,22.2,30.66,South,175,1.0,1.0,60,0.00,,,0.00,Wunderground v.1.15,2013-11-29 17:50:00,
2013-11-29 12:55:00,34.6,22.1,30.66,SSE,148,1.0,2.0,60,0.00,,,0.00,Wunderground v.1.15,2013-11-29 17:55:00,
2013-11-29 13:00:00,34.5,21.6,30.66,SSE,148,0.0,0.0,59,0.00,,,0.00,Wunderground v.1.15,2013-11-29 18:00:00,
2013-11-29 13:06:00,34.6,22.1,30.66,SSE,148,0.0,0.0,60,0.00,,,0.00,Wunderground v.1.15,2013-11-29 18:06:00,
2013-11-29 13:12:00,34.9,22.4,30.66,SSE,148,0.0,2.0,60,0.00,,,0.00,Wunderground v.1.15,2013-11-29 18:12:00,
2013-11-29 13:17:00,35.0,21.7,30.65,SSE,148,0.0,2.0,58,0.00,,,0.00,Wunderground v.1.15,2013-11-29 18:17:00,
2013-11-29 13:22:00,35.0,21.7,30.65,NNE,26,0.0,2.0,58,0.00,,,0.00,Wunderground v.1.15,2013-11-29 18:22:00,
2013-11-29 13:27:00,34.9,21.6,30.66,NE,51,0.0,2.0,58,0.00,,,0.00,Wunderground v.1.15,2013-11-29 18:27:00,
2013-11-29 13:32:00,34.9,22.0,30.65,NE,51,0.0,0.0,59,0.00,,,0.00,Wunderground v.1.15,2013-11-29 18:32:00,
2013-11-29 13:38:00,34.9,22.0,30.66,North,355,0.0,0.0,59,0.00,,,0.00,Wunderground v.1.15,2013-11-29 18:38:00,
2013-11-29 13:43:00,35.1,22.6,30.66,NNE,14,0.0,2.0,60,0.00,,,0.00,Wunderground v.1.15,2013-11-29 18:43:00,
2013-11-29 13:48:00,35.2,22.3,30.66,NNE,14,0.0,2.0,59,0.00,,,0.00,Wunderground v.1.15,2013-11-29 18:48:00,
2013-11-29 13:53:00,35.1,21.8,30.66,NNE,14,0.0,0.0,58,0.00,,,0.00,Wunderground v.1.15,2013-11-29 18:53:00,
2013-11-29 13:59:00,35.0,21.7,30.66,SE,126,1.0,3.0,58,0.00,,,0.00,Wunderground v.1.15,2013-11-29 18:59:00,
2013-11-29 14:04:00,34.9,21.2,30.66,SE,126,1.0,1.0,57,0.00,,,0.00,Wunderground v.1.15,2013-11-29 19:04:00,
2013-11-29 14:09:00,35.0,22.1,30.65,SE,126,0.0,1.0,59,0.00,,,0.00,Wunderground v.1.15,2013-11-29 19:09:00,
2013-11-29 14:14:00,35.1,22.2,30.65,SSE,153,0.0,1.0,59,0.00,,,0.00,Wunderground v.1.15,2013-11-29 19:14:00,
2013-11-29 14:19:00,35.1,21.8,30.65,SSE,153,0.0,1.0,58,0.00,,,0.00,Wunderground v.1.15,2013-11-29 19:19:00,
2013-11-29 14:25:00,35.1,21.8,30.65,NW,310,0.0,2.0,58,0.00,,,0.00,Wunderground v.1.15,2013-11-29 19:25:00,
2013-11-29 14:30:00,35.0,21.3,30.65,North,355,0.0,0.0,57,0.00,,,0.00,Wunderground v.1.15,2013-11-29 19:30:00,
2013-11-29 14:35:00,35.0,21.7,30.65,NW,323,0.0,2.0,58,0.00,,,0.00,Wunderground v.1.15,2013-11-29 19:35:00,
2013-11-29 14:40:00,34.8,21.5,30.65,ESE,119,0.0,0.0,58,0.00,,,0.00,Wunderground v.1.15,2013-11-29 19:40:00,
2013-11-29 14:46:00,34.8,21.5,30.66,ESE,119,0.0,0.0,58,0.00,,,0.00,Wunderground v.1.15,2013-11-29 19:46:00,
2013-11-29 14:52:00,34.8,22.3,30.66,ESE,123,0.0,1.0,60,0.00,,,0.00,Wunderground v.1.15,2013-11-29 19:52:00,
2013-11-29 14:57:00,34.8,21.9,30.66,ESE,123,0.0,1.0,59,0.00,,,0.00,Wunderground v.1.15,2013-11-29 19:57:00,
2013-11-29 15:02:00,34.9,22.0,30.66,ESE,123,0.0,0.0,59,0.00,,,0.00,Wunderground v.1.15,2013-11-29 20:02:00,
2013-11-29 15:08:00,35.0,22.9,30.66,ESE,123,0.0,0.0,61,0.00,,,0.00,Wunderground v.1.15,2013-11-29 20:08:00,
2013-11-29 15:14:00,34.9,21.6,30.66,ESE,121,0.0,0.0,58,0.00,,,0.00,Wunderground v.1.15,2013-11-29 20:14:00,
2013-11-29 15:19:00,34.8,22.3,30.66,ESE,121,0.0,1.0,60,0.00,,,0.00,Wunderground v.1.15,2013-11-29 20:19:00,
2013-11-29 15:24:00,34.8,21.9,30.66,ESE,104,0.0,1.0,59,0.00,,,0.00,Wunderground v.1.15,2013-11-29 20:24:00,
2013-11-29 15:30:00,34.8,21.9,30.66,ESE,104,0.0,0.0,59,0.00,,,0.00,Wunderground v.1.15,2013-11-29 20:30:00,
2013-11-29 15:35:00,34.8,21.9,30.66,SE,128,0.0,2.0,59,0.00,,,0.00,Wunderground v.1.15,2013-11-29 20:35:00,
2013-11-29 15:40:00,34.7,21.8,30.66,SE,128,1.0,1.0,59,0.00,,,0.00,Wunderground v.1.15,2013-11-29 20:40:00,
2013-11-29 15:45:00,34.7,21.8,30.66,West,266,1.0,1.0,59,0.00,,,0.00,Wunderground v.1.15,2013-11-29 20:45:00,
2013-11-29 15:50:00,34.6,21.7,30.66,ESE,123,0.0,0.0,59,0.00,,,0.00,Wunderground v.1.15,2013-11-29 20:50:00,
2013-11-29 15:56:00,34.4,21.5,30.66,NW,311,0.0,0.0,59,0.00,,,0.00,Wunderground v.1.15,2013-11-29 20:56:00,
2013-11-29 16:02:00,34.3,21.4,30.66,NE,40,0.0,0.0,59,0.00,,,0.00,Wunderground v.1.15,2013-11-29 21:02:00,
2013-11-29 16:07:00,34.2,23.3,30.66,NE,40,0.0,0.0,64,0.00,,,0.00,Wunderground v.1.15,2013-11-29 21:07:00,
2013-11-29 16:13:00,34.0,22.3,30.66,NE,40,0.0,0.0,62,0.00,,,0.00,Wunderground v.1.15,2013-11-29 21:13:00,
2013-11-29 16:18:00,33.8,22.5,30.66,East,90,0.0,0.0,63,0.00,,,0.00,Wunderground v.1.15,2013-11-29 21:18:00,
2013-11-29 16:23:00,33.5,22.2,30.66,East,90,0.0,1.0,63,0.00,,,0.00,Wunderground v.1.15,2013-11-29 21:23:00,
2013-11-29 16:28:00,33.4,23.3,30.66,East,90,0.0,1.0,66,0.00,,,0.00,Wunderground v.1.15,2013-11-29 21:28:00,
2013-11-29 16:34:00,33.1,23.3,30.67,East,90,0.0,0.0,67,0.00,,,0.00,Wunderground v.1.15,2013-11-29 21:34:00,
2013-11-29 16:39:00,32.8,23.7,30.67,East,90,0.0,0.0,69,0.00,,,0.00,Wunderground v.1.15,2013-11-29 21:39:00,
2013-11-29 16:45:00,32.4,24.7,30.67,East,90,0.0,0.0,73,0.00,,,0.00,Wunderground v.1.15,2013-11-29 21:45:00,
2013-11-29 16:50:00,32.0,24.3,30.67,East,90,0.0,0.0,73,0.00,,,0.00,Wunderground v.1.15,2013-11-29 21:50:00,
2013-11-29 16:55:00,31.6,24.6,30.67,East,90,0.0,0.0,75,0.00,,,0.00,Wunderground v.1.15,2013-11-29 21:55:00,
2013-11-29 17:00:00,31.1,23.1,30.67,East,90,0.0,0.0,72,0.00,,,0.00,Wunderground v.1.15,2013-11-29 22:00:00,
2013-11-29 17:06:00,30.8,24.1,30.67,East,90,0.0,0.0,76,0.00,,,0.00,Wunderground v.1.15,2013-11-29 22:06:00,
2013-11-29 17:12:00,30.3,24.0,30.67,East,90,0.0,0.0,77,0.00,,,0.00,Wunderground v.1.15,2013-11-29 22:12:00,
2013-11-29 17:17:00,30.0,24.0,30.67,East,90,0.0,0.0,78,0.00,,,0.00,Wunderground v.1.15,2013-11-29 22:17:00,
2013-11-29 17:22:00,29.7,24.3,30.68,East,90,0.0,0.0,80,0.00,,,0.00,Wunderground v.1.15,2013-11-29 22:22:00,
2013-11-29 17:28:00,29.4,23.7,30.68,East,90,0.0,0.0,79,0.00,,,0.00,Wunderground v.1.15,2013-11-29 22:28:00,
2013-11-29 17:33:00,29.1,24.0,30.68,East,90,0.0,0.0,81,0.00,,,0.00,Wunderground v.1.15,2013-11-29 22:33:00,
2013-11-29 17:38:00,28.7,23.9,30.68,East,90,0.0,0.0,82,0.00,,,0.00,Wunderground v.1.15,2013-11-29 22:38:00,
2013-11-29 17:44:00,28.4,23.6,30.68,East,90,0.0,0.0,82,0.00,,,0.00,Wunderground v.1.15,2013-11-29 22:44:00,
2013-11-29 17:49:00,28.1,23.3,30.69,East,90,0.0,0.0,82,0.00,,,0.00,Wunderground v.1.15,2013-11-29 22:49:00,
2013-11-29 17:54:00,27.9,23.1,30.69,East,90,0.0,0.0,82,0.00,,,0.00,Wunderground v.1.15,2013-11-29 22:54:00,
2013-11-29 17:59:00,27.6,23.1,30.69,East,90,0.0,0.0,83,0.00,,,0.00,Wunderground v.1.15,2013-11-29 22:59:00,
2013-11-29 18:05:00,27.4,23.2,30.69,East,90,0.0,0.0,84,0.00,,,0.00,Wunderground v.1.15,2013-11-29 23:05:00,
2013-11-29 18:10:00,27.2,23.0,30.69,East,90,0.0,0.0,84,0.00,,,0.00,Wunderground v.1.15,2013-11-29 23:10:00,
2013-11-29 18:15:00,27.1,23.2,30.69,East,90,0.0,0.0,85,0.00,,,0.00,Wunderground v.1.15,2013-11-29 23:15:00,
2013-11-29 18:20:00,27.0,23.1,30.69,East,90,0.0,0.0,85,0.00,,,0.00,Wunderground v.1.15,2013-11-29 23:20:00,
2013-11-29 18:26:00,26.8,22.9,30.69,East,90,0.0,0.0,85,0.00,,,0.00,Wunderground v.1.15,2013-11-29 23:26:00,
2013-11-29 18:31:00,26.7,22.8,30.69,East,90,0.0,0.0,85,0.00,,,0.00,Wunderground v.1.15,2013-11-29 23:31:00,
2013-11-29 18:37:00,26.5,22.6,30.70,East,90,0.0,0.0,85,0.00,,,0.00,Wunderground v.1.15,2013-11-29 23:37:00,
2013-11-29 18:42:00,26.3,22.4,30.70,East,90,0.0,0.0,85,0.00,,,0.00,Wunderground v.1.15,2013-11-29 23:42:00,
2013-11-29 18:47:00,26.1,22.5,30.70,East,90,0.0,0.0,86,0.00,,,0.00,Wunderground v.1.15,2013-11-29 23:47:00,
2013-11-29 18:52:00,26.0,22.7,30.70,East,90,0.0,0.0,87,0.00,,,0.00,Wunderground v.1.15,2013-11-29 23:52:00,
2013-11-29 18:58:00,26.0,22.7,30.70,East,90,0.0,0.0,87,0.00,,,0.00,Wunderground v.1.15,2013-11-29 23:58:00,
2013-11-29 19:03:00,25.9,22.3,30.70,East,90,0.0,0.0,86,0.00,,,0.00,Wunderground v.1.15,2013-11-30 00:03:00,
2013-11-29 19:09:00,25.8,22.2,30.70,East,90,0.0,0.0,86,0.00,,,0.00,Wunderground v.1.15,2013-11-30 00:09:00,
2013-11-29 19:14:00,25.7,22.1,30.71,East,90,0.0,0.0,86,0.00,,,0.00,Wunderground v.1.15,2013-11-30 00:14:00,
2013-11-29 19:19:00,25.6,22.0,30.71,East,90,0.0,0.0,86,0.00,,,0.00,Wunderground v.1.15,2013-11-30 00:19:00,
2013-11-29 19:24:00,25.7,22.1,30.70,East,90,0.0,0.0,86,0.00,,,0.00,Wunderground v.1.15,2013-11-30 00:24:00,
2013-11-29 19:30:00,25.7,22.1,30.70,East,90,0.0,0.0,86,0.00,,,0.00,Wunderground v.1.15,2013-11-30 00:30:00,
2013-11-29 19:35:00,25.7,22.1,30.70,East,90,0.0,0.0,86,0.00,,,0.00,Wunderground v.1.15,2013-11-30 00:35:00,
2013-11-29 19:40:00,25.7,21.8,30.70,East,90,0.0,0.0,85,0.00,,,0.00,Wunderground v.1.15,2013-11-30 00:40:00,
2013-11-29 19:46:00,25.7,21.8,30.70,East,90,0.0,0.0,85,0.00,,,0.00,Wunderground v.1.15,2013-11-30 00:46:00,
2013-11-29 19:51:00,25.7,22.1,30.70,East,90,0.0,0.0,86,0.00,,,0.00,Wunderground v.1.15,2013-11-30 00:51:00,
2013-11-29 19:57:00,25.7,21.8,30.70,East,90,0.0,0.0,85,0.00,,,0.00,Wunderground v.1.15,2013-11-30 00:57:00,
2013-11-29 20:02:00,25.7,21.8,30.70,East,90,0.0,0.0,85,0.00,,,0.00,Wunderground v.1.15,2013-11-30 01:02:00,
2013-11-29 20:08:00,25.7,21.8,30.70,East,90,0.0,0.0,85,0.00,,,0.00,Wunderground v.1.15,2013-11-30 01:08:00,
2013-11-29 20:13:00,25.6,21.7,30.69,East,90,0.0,0.0,85,0.00,,,0.00,Wunderground v.1.15,2013-11-30 01:13:00,
2013-11-29 20:18:00,25.6,21.4,30.69,East,90,0.0,0.0,84,0.00,,,0.00,Wunderground v.1.15,2013-11-30 01:18:00,
2013-11-29 20:24:00,25.6,21.7,30.70,East,90,0.0,0.0,85,0.00,,,0.00,Wunderground v.1.15,2013-11-30 01:24:00,
2013-11-29 20:29:00,25.6,21.7,30.69,East,90,0.0,0.0,85,0.00,,,0.00,Wunderground v.1.15,2013-11-30 01:29:00,
2013-11-29 20:34:00,25.6,21.7,30.69,East,90,0.0,0.0,85,0.00,,,0.00,Wunderground v.1.15,2013-11-30 01:34:00,
2013-11-29 20:39:00,25.5,21.6,30.69,East,90,0.0,0.0,85,0.00,,,0.00,Wunderground v.1.15,2013-11-30 01:39:00,
2013-11-29 20:45:00,25.5,21.3,30.69,East,90,0.0,0.0,84,0.00,,,0.00,Wunderground v.1.15,2013-11-30 01:45:00,
2013-11-29 20:50:00,25.4,21.2,30.69,East,90,0.0,0.0,84,0.00,,,0.00,Wunderground v.1.15,2013-11-30 01:50:00,
2013-11-29 20:55:00,25.5,21.1,30.69,East,90,0.0,0.0,83,0.00,,,0.00,Wunderground v.1.15,2013-11-30 01:55:00,
2013-11-29 21:00:00,25.7,21.0,30.69,East,90,0.0,0.0,82,0.00,,,0.00,Wunderground v.1.15,2013-11-30 02:00:00,
2013-11-29 21:06:00,26.0,21.0,30.69,East,90,0.0,0.0,81,0.00,,,0.00,Wunderground v.1.15,2013-11-30 02:06:00,
2013-11-29 21:12:00,26.2,21.2,30.69,East,90,0.0,0.0,81,0.00,,,0.00,Wunderground v.1.15,2013-11-30 02:12:00,
2013-11-29 21:17:00,26.4,21.4,30.69,East,90,0.0,0.0,81,0.00,,,0.00,Wunderground v.1.15,2013-11-30 02:17:00,
2013-11-29 21:22:00,26.4,21.1,30.70,East,90,0.0,0.0,80,0.00,,,0.00,Wunderground v.1.15,2013-11-30 02:22:00,
2013-11-29 21:27:00,26.3,21.3,30.70,East,90,0.0,0.0,81,0.00,,,0.00,Wunderground v.1.15,2013-11-30 02:27:00,
2013-11-29 21:32:00,26.1,21.4,30.70,East,90,0.0,0.0,82,0.00,,,0.00,Wunderground v.1.15,2013-11-30 02:32:00,
2013-11-29 21:38:00,25.8,21.1,30.70,East,90,0.0,0.0,82,0.00,,,0.00,Wunderground v.1.15,2013-11-30 02:38:00,
2013-11-29 21:43:00,25.7,21.0,30.69,East,90,0.0,0.0,82,0.00,,,0.00,Wunderground v.1.15,2013-11-30 02:43:00,
2013-11-29 21:49:00,25.5,20.8,30.69,East,90,0.0,0.0,82,0.00,,,0.00,Wunderground v.1.15,2013-11-30 02:49:00,
2013-11-29 21:54:00,25.6,20.9,30.69,East,90,0.0,0.0,82,0.00,,,0.00,Wunderground v.1.15,2013-11-30 02:54:00,
2013-11-29 21:59:00,25.4,20.7,30.69,East,90,0.0,0.0,82,0.00,,,0.00,Wunderground v.1.15,2013-11-30 02:59:00,
2013-11-29 22:04:00,25.4,20.7,30.69,East,90,0.0,0.0,82,0.00,,,0.00,Wunderground v.1.15,2013-11-30 03:04:00,
2013-11-29 22:10:00,25.6,20.9,30.69,East,90,0.0,0.0,82,0.00,,,0.00,Wunderground v.1.15,2013-11-30 03:10:00,
2013-11-29 22:15:00,25.6,20.9,30.68,East,90,0.0,0.0,82,0.00,,,0.00,Wunderground v.1.15,2013-11-30 03:15:00,
2013-11-29 22:20:00,25.4,20.7,30.68,East,90,0.0,0.0,82,0.00,,,0.00,Wunderground v.1.15,2013-11-30 03:20:00,
2013-11-29 22:26:00,25.4,21.0,30.68,East,90,0.0,0.0,83,0.00,,,0.00,Wunderground v.1.15,2013-11-30 03:26:00,
2013-11-29 22:32:00,25.2,20.5,30.68,East,90,0.0,0.0,82,0.00,,,0.00,Wunderground v.1.15,2013-11-30 03:32:00,
2013-11-29 22:37:00,25.2,20.8,30.68,East,90,0.0,0.0,83,0.00,,,0.00,Wunderground v.1.15,2013-11-30 03:37:00,
2013-11-29 22:42:00,25.0,20.6,30.69,East,90,0.0,0.0,83,0.00,,,0.00,Wunderground v.1.15,2013-11-30 03:42:00,
2013-11-29 22:47:00,24.8,20.7,30.69,East,90,0.0,0.0,84,0.00,,,0.00,Wunderground v.1.15,2013-11-30 03:47:00,
2013-11-29 22:53:00,24.5,20.4,30.69,East,90,0.0,0.0,84,0.00,,,0.00,Wunderground v.1.15,2013-11-30 03:53:00,
2013-11-29 22:58:00,24.3,20.4,30.68,East,90,0.0,0.0,85,0.00,,,0.00,Wunderground v.1.15,2013-11-30 03:58:00,
2013-11-29 23:03:00,24.2,20.6,30.69,East,90,0.0,0.0,86,0.00,,,0.00,Wunderground v.1.15,2013-11-30 04:03:00,
2013-11-29 23:09:00,24.0,20.4,30.68,East,90,0.0,0.0,86,0.00,,,0.00,Wunderground v.1.15,2013-11-30 04:09:00,
2013-11-29 23:14:00,23.9,20.3,30.68,East,90,0.0,0.0,86,0.00,,,0.00,Wunderground v.1.15,2013-11-30 04:14:00,
2013-11-29 23:19:00,23.8,20.2,30.68,East,90,0.0,0.0,86,0.00,,,0.00,Wunderground v.1.15,2013-11-30 04:19:00,
2013-11-29 23:24:00,23.7,20.1,30.68,East,90,0.0,0.0,86,0.00,,,0.00,Wunderground v.1.15,2013-11-30 04:24:00,
2013-11-29 23:30:00,23.6,20.0,30.69,East,90,0.0,0.0,86,0.00,,,0.00,Wunderground v.1.15,2013-11-30 04:30:00,
2013-11-29 23:35:00,23.5,20.2,30.68,East,90,0.0,0.0,87,0.00,,,0.00,Wunderground v.1.15,2013-11-30 04:35:00,
2013-11-29 23:40:00,23.4,20.1,30.68,East,90,0.0,0.0,87,0.00,,,0.00,Wunderground v.1.15,2013-11-30 04:40:00,
2013-11-29 23:46:00,23.3,20.0,30.68,East,90,0.0,0.0,87,0.00,,,0.00,Wunderground v.1.15,2013-11-30 04:46:00,
2013-11-29 23:52:00,23.2,19.9,30.68,East,90,0.0,0.0,87,0.00,,,0.00,Wunderground v.1.15,2013-11-30 04:52:00,
2013-11-29 23:58:00,23.1,20.1,30.68,East,90,0.0,0.0,88,0.00,,,0.00,Wunderground v.1.15,2013-11-30 04:58:00,